Wetbulb
69.38 69.20 69.81 68.48 67.00 65.80 64.80 64.67 64.64 64.99 65.90 66.67 67.34 66.98 66.67 67.06 61.91 61.00 60.50 60.59 63.69 66.19 66.40 66.44 67.08 66.42 66.67 67.14 67.70 67.85 68.66 68.95 68.43
69.91 70.53 70.15 67.74 66.96 65.72 65.36 65.62 66.09 66.21 65.87 66.43 66.98 67.67 68.02 64.00 60.95 60.00 59.27 58.07 64.54 65.63 66.59 66.89 66.83 66.72 67.35 67.24 67.01 67.57 67.87 68.39 68.65
69.36 69.25 68.61 67.68 66.62 66.29 66.36 66.87 67.09 67.10 66.78 66.67 66.36 67.42 67.50 64.84 61.65 60.75 59.66 61.88 65.85 66.56 66.49 66.84 67.48 67.60 67.11 66.57 66.62 67.00 67.22 67.31 67.00
68.24 69.64 68.64 67.96 67.14 66.86 67.13 67.54 66.89 66.48 66.84 67.17 67.33 67.68 67.10 64.05 62.46 62.50 61.38 63.93 66.93 67.85 67.86 67.66 67.68 67.88 68.02 67.84 67.40 66.87 66.64 66.60 67.52
67.51 69.19 68.46 67.74 67.59 67.58 67.53 66.88 67.12 67.48 67.64 67.55 68.04 67.43 66.74 63.19 61.95 62.02 62.00 65.83 67.76 68.68 68.68 68.71 68.51 68.51 68.28 68.91 68.05 67.84 67.49 67.17 66.38
63.41 65.49 66.51 67.45 67.91 67.39 67.53 67.88 68.08 68.35 67.58 67.48 67.22 66.25 63.88 62.74 61.05 61.60 64.08 66.44 68.11 68.87 69.05 68.98 68.96 69.02 69.08 69.41 69.02 67.79 67.95 68.19 67.70
61.99 62.91 65.66 67.23 67.70 67.71 67.60 68.15 67.74 65.12 63.79 62.68 63.49 61.41 60.89 60.10 60.43 61.30 64.86 66.89 67.74 67.49 68.02 68.46 68.53 68.60 68.63 68.51 68.27 68.19 68.39 68.31 68.48
61.15 60.69 61.10 61.14 62.41 61.98 63.13 62.57 62.88 59.67 59.05 58.28 57.25 56.53 57.07 57.50 58.91 60.77 63.53 63.36 64.26 64.83 66.20 66.65 67.30 68.28 69.10 68.10 68.19 68.64 68.24 68.16 68.27
60.12 60.64 63.60 63.25 61.96 61.48 58.54 55.79 52.39 51.31 51.35 50.63 50.49 51.12 51.96 52.37 54.52 55.54 59.44 61.55 62.78 63.82 64.13 64.86 65.88 67.43 68.08 67.65 67.95 67.72 67.33 67.28 67.48
61.20 61.24 58.33 55.33 55.28 52.45 49.41 48.89 47.74 47.21 47.46 47.28 47.54 47.28 47.65 47.90 49.47 50.66 56.67 59.42 59.10 60.04 61.64 63.58 62.13 62.12 62.80 63.31 63.96 65.33 64.62 65.41 66.25
52.95 53.84 53.74 51.73 49.24 48.10 46.26 45.09 44.70 44.08 44.32 44.52 44.82 44.15 42.80 44.61 46.15 48.40 47.86 55.60 54.94 58.13 59.41 58.65 58.36 58.67 60.32 61.40 60.77 60.67 60.74 60.85 61.18
52.50 51.40 49.85 47.29 45.88 45.05 43.29 42.95 43.25 42.25 42.78 41.00 42.72 42.83 41.88 44.42 42.97 44.88 45.38 47.60 51.08 54.49 54.52 55.15 55.35 56.36 57.67 57.81 58.48 58.56 58.22 58.41 59.16
49.83 48.30 45.48 44.02 43.01 42.71 41.43 41.03 41.15 40.28 39.47 39.18 41.12 40.40 41.64 42.00 40.12 41.88 43.04 44.64 43.94 47.68 50.65 51.74 51.94 53.96 54.43 55.89 56.28 56.33 56.28 57.13 57.94
44.94 44.06 43.18 42.14 41.44 40.68 40.35 39.37 39.12 38.62 39.09 40.72 41.20 38.80 40.69 39.83 39.66 39.08 39.95 41.66 40.36 42.40 45.76 48.36 48.51 49.92 51.49 52.74 53.88 54.22 54.48 54.41 55.06
42.36 41.88 41.57 41.06 40.14 39.29 38.40 37.67 38.01 38.59 37.47 41.24 40.47 37.64 40.87 37.43 36.92 37.78 38.97 38.26 38.07 40.40 39.01 39.93 41.14 47.45 48.78 49.65 51.32 51.99 51.95 52.35 54.09
40.82 40.54 40.21 39.70 38.19 37.06 37.46 37.42 36.87 37.21 37.46 36.13 36.59 37.43 37.76 36.39 37.20 37.24 36.20 36.71 38.16 38.26 38.98 40.16 40.00 39.50 45.22 46.04 48.50 49.14 50.45 51.64 51.97
40.64 39.34 38.46 37.71 36.99 35.99 35.42 35.58 35.35 35.51 36.64 34.27 33.78 31.81 34.02 36.07 38.11 35.61 36.81 35.11 36.88 37.50 38.85 38.57 38.60 38.06 36.39 40.32 45.66 46.71 49.31 49.90 50.71
39.20 38.16 37.32 36.37 35.77 34.67 34.17 33.94 33.52 32.60 33.87 34.95 32.53 28.53 28.20 31.61 33.92 34.77 34.08 35.62 34.20 35.95 36.61 37.86 38.01 37.37 35.80 39.07 40.16 44.79 46.08 48.25 50.13
38.34 37.45 36.32 35.45 35.03 33.60 33.64 34.92 32.81 32.41 31.04 33.25 36.17 33.19 31.98 28.68 27.35 31.92 34.11 32.91 34.95 33.23 33.93 36.35 36.29 36.21 35.77 39.17 41.62 43.38 45.14 47.18 48.81
36.87 36.16 35.02 34.42 34.19 32.92 32.36 31.76 31.05 31.86 30.62 30.96 31.13 30.03 30.83 30.39 28.14 26.18 28.27 32.67 33.67 33.85 34.41 33.92 35.45 34.66 35.46 35.13 38.09 43.09 44.07 46.11 47.22
MSLP
1012.65 1012.69 1012.77 1013.03 1013.29 1013.36 1013.45 1013.58 1013.58 1013.63 1013.57 1013.49 1013.36 1013.32 1013.38 1013.44 1013.65 1013.73 1013.73 1013.64 1013.45 1013.19 1012.88 1012.73 1012.93 1012.97 1013.12 1012.99 1013.00 1012.87 1012.79 1012.87 1012.91
1012.46 1012.58 1012.89 1013.26 1013.38 1013.33 1013.43 1013.46 1013.47 1013.51 1013.47 1013.34 1013.19 1013.09 1013.17 1013.35 1013.57 1013.65 1013.65 1013.58 1013.26 1012.97 1012.77 1012.49 1012.49 1012.58 1012.74 1012.72 1012.61 1012.64 1012.50 1012.57 1012.65
1012.58 1012.70 1013.01 1013.24 1013.30 1013.28 1013.21 1013.24 1013.23 1013.32 1013.26 1013.12 1013.11 1013.13 1013.13 1013.21 1013.31 1013.37 1013.38 1013.23 1012.92 1012.67 1012.49 1012.37 1012.16 1012.18 1012.19 1012.21 1012.19 1012.24 1012.21 1012.21 1012.20
1012.73 1012.74 1013.00 1013.31 1013.22 1013.21 1013.15 1013.20 1013.18 1013.24 1013.21 1013.09 1013.01 1013.00 1012.99 1013.05 1013.05 1012.99 1012.90 1012.79 1012.57 1012.33 1012.11 1011.98 1011.82 1011.65 1011.63 1011.76 1011.76 1011.79 1011.83 1011.77 1011.78
1012.94 1013.01 1013.10 1013.32 1013.30 1013.25 1013.25 1013.14 1013.10 1013.11 1013.08 1012.94 1012.91 1012.89 1012.78 1012.78 1012.78 1012.70 1012.49 1012.30 1012.07 1011.78 1011.56 1011.43 1011.32 1011.27 1011.18 1011.10 1011.12 1011.21 1011.40 1011.39 1011.34
1012.99 1013.08 1013.17 1013.22 1013.32 1013.19 1013.24 1013.12 1012.94 1012.94 1012.94 1012.86 1012.91 1012.84 1012.71 1012.73 1012.61 1012.44 1012.15 1011.92 1011.62 1011.34 1011.12 1010.98 1010.88 1010.74 1010.63 1010.56 1010.54 1010.64 1010.71 1010.62 1010.74
1012.98 1013.01 1013.10 1013.22 1013.35 1013.28 1013.18 1013.07 1013.00 1013.00 1013.01 1013.07 1012.96 1012.97 1012.87 1012.74 1012.55 1012.34 1012.09 1011.79 1011.39 1011.02 1010.68 1010.59 1010.43 1010.27 1010.14 1010.10 1010.13 1010.18 1010.03 1010.09 1009.98
1013.24 1013.23 1013.23 1013.41 1013.41 1013.44 1013.32 1013.33 1013.25 1013.36 1013.37 1013.35 1013.24 1013.07 1012.94 1012.81 1012.55 1012.30 1011.97 1011.69 1011.31 1010.90 1010.59 1010.30 1010.09 1009.84 1009.59 1009.54 1009.43 1009.49 1009.53 1009.48 1009.44
1013.35 1013.29 1013.16 1013.25 1013.48 1013.53 1013.63 1013.62 1013.77 1013.76 1013.69 1013.56 1013.40 1013.23 1013.09 1012.86 1012.55 1012.26 1011.92 1011.63 1011.19 1010.83 1010.52 1010.23 1009.97 1009.49 1009.07 1008.99 1009.04 1009.12 1009.12 1008.93 1008.85
1013.42 1013.22 1013.56 1013.59 1013.85 1014.04 1014.23 1014.25 1014.16 1014.12 1013.92 1013.77 1013.73 1013.59 1013.42 1013.13 1012.79 1012.52 1012.08 1011.76 1011.47 1011.13 1010.77 1010.48 1010.32 1010.01 1009.66 1009.35 1009.24 1009.15 1009.04 1008.79 1008.62
1013.64 1013.70 1013.85 1014.13 1014.45 1014.58 1014.60 1014.58 1014.61 1014.64 1014.38 1014.13 1013.89 1013.87 1013.60 1013.34 1013.04 1012.77 1012.51 1012.14 1011.90 1011.49 1011.22 1011.08 1010.83 1010.49 1010.06 1009.67 1009.56 1009.49 1009.26 1008.98 1008.85
1013.85 1014.12 1014.35 1014.80 1014.83 1014.80 1014.73 1014.73 1014.75 1014.80 1014.63 1014.38 1014.11 1013.95 1013.78 1013.54 1013.28 1013.06 1012.83 1012.61 1012.32 1012.00 1011.76 1011.50 1011.28 1010.93 1010.56 1010.18 1009.87 1009.72 1009.50 1009.24 1008.93
1014.11 1014.39 1014.84 1015.22 1015.00 1015.01 1015.13 1015.19 1015.18 1015.27 1015.08 1014.69 1014.26 1014.25 1013.98 1013.72 1013.48 1013.36 1013.15 1013.01 1012.83 1012.57 1012.24 1012.02 1011.71 1011.35 1010.98 1010.48 1010.25 1009.96 1009.64 1009.23 1008.92
1014.56 1014.98 1015.37 1015.40 1015.37 1015.53 1015.68 1015.62 1015.74 1015.89 1015.44 1014.88 1014.32 1014.30 1014.15 1014.00 1013.73 1013.76 1013.55 1013.41 1013.19 1013.02 1012.76 1012.52 1012.21 1011.85 1011.40 1010.98 1010.58 1010.23 1009.89 1009.57 1009.14
1014.96 1015.35 1015.68 1015.68 1015.87 1016.15 1016.08 1016.12 1016.16 1016.19 1016.05 1015.24 1014.66 1014.41 1014.20 1014.14 1014.00 1014.00 1013.73 1013.59 1013.39 1013.23 1012.94 1012.72 1012.45 1012.05 1011.63 1011.30 1010.75 1010.29 1009.84 1009.28 1008.86
1015.38 1015.85 1016.12 1016.26 1016.51 1016.74 1016.66 1016.64 1016.70 1016.49 1016.24 1015.86 1015.12 1014.44 1014.23 1014.12 1013.98 1013.90 1013.80 1013.55 1013.44 1013.26 1012.93 1012.76 1012.41 1012.13 1011.71 1011.36 1010.77 1010.35 1009.78 1009.12 1009.00
1015.89 1016.26 1016.61 1016.78 1016.93 1017.03 1017.25 1017.30 1017.22 1017.08 1016.78 1016.83 1016.42 1015.92 1015.02 1014.33 1013.61 1013.81 1013.76 1013.68 1013.54 1013.08 1012.85 1012.70 1012.33 1012.08 1011.74 1011.27 1010.80 1010.41 1009.80 1009.48 1009.10
1016.31 1016.61 1016.90 1017.18 1017.32 1017.58 1017.65 1017.66 1017.70 1017.79 1017.33 1017.19 1017.21 1016.93 1016.72 1015.68 1014.29 1013.89 1013.87 1013.68 1013.61 1013.41 1013.07 1012.64 1012.23 1011.98 1011.63 1011.23 1010.82 1010.34 1009.89 1009.42 1008.80
1016.69 1016.96 1017.23 1017.46 1017.70 1017.78 1017.81 1017.79 1017.85 1017.88 1018.05 1017.57 1017.38 1017.48 1017.46 1016.95 1015.31 1014.39 1013.87 1013.85 1013.60 1013.26 1012.88 1012.41 1012.12 1011.71 1011.40 1011.01 1010.64 1010.15 1009.62 1009.01 1008.43
1017.14 1017.31 1017.45 1017.70 1017.95 1018.01 1017.97 1017.96 1017.95 1017.97 1018.11 1018.11 1017.93 1017.60 1017.22 1017.04 1017.03 1014.99 1013.93 1013.63 1013.30 1012.98 1012.53 1012.18 1011.68 1011.41 1011.00 1010.75 1010.33 1009.77 1009.43 1008.87 1008.49
Wind_Speed
8 9 9 10 7 4 1 0 2 4 6 7 8 8 8 5 3 4 6 6 10 11 13 11 10 10 11 12 12 12 9 12 11
8 14 4 7 5 3 2 3 4 5 6 7 9 8 7 3 3 4 5 6 12 13 13 13 12 12 12 13 14 15 15 15 15
3 6 7 6 4 3 4 5 6 7 8 7 8 8 7 4 4 5 5 10 13 14 14 14 15 13 14 14 14 15 16 17 18
3 5 6 5 3 4 6 7 9 9 9 9 9 8 8 5 4 5 4 11 13 13 13 14 15 15 14 14 15 16 17 18 17
1 2 1 4 6 6 8 9 9 9 10 10 10 9 9 5 5 4 5 13 14 14 14 14 14 15 15 14 15 16 17 18 18
3 4 6 6 7 7 8 8 8 9 9 10 11 11 3 4 4 3 11 13 15 17 16 16 16 16 16 15 15 17 18 19 18
3 4 5 6 7 8 9 11 11 8 3 3 6 3 5 4 4 3 13 15 15 16 16 15 16 16 18 17 18 20 19 20 18
0 1 2 2 4 3 4 4 3 6 5 4 4 4 4 3 3 5 11 12 13 13 14 16 16 15 15 16 16 17 19 21 19
1 1 2 2 2 4 4 3 4 6 6 6 6 6 4 3 3 5 12 12 13 12 12 13 15 16 12 12 14 15 16 15 15
3 4 4 4 4 4 4 4 5 5 6 5 6 6 6 6 3 3 12 15 17 16 15 16 18 19 18 18 17 17 19 17 12
4 4 5 5 4 4 4 4 5 5 4 6 6 5 5 5 6 4 5 15 18 17 18 17 18 19 18 19 19 17 17 16 15
5 4 5 4 4 4 4 5 5 5 5 6 5 5 6 5 6 5 4 6 14 17 19 19 19 19 19 19 18 18 18 18 16
5 5 5 4 4 4 5 4 4 5 5 5 5 4 4 5 7 5 5 5 6 9 19 19 19 19 20 18 18 18 17 17 16
6 5 4 5 5 5 4 4 4 4 6 6 5 4 2 4 5 6 6 6 5 5 12 16 16 18 18 18 18 18 18 18 17
6 5 6 5 5 5 4 5 4 2 4 5 7 4 1 2 4 4 4 5 6 5 5 5 6 17 17 19 20 20 21 19 17
7 5 5 5 5 4 5 3 5 3 6 3 5 3 1 2 4 3 3 5 5 5 6 6 5 5 16 19 22 22 21 17 18
6 6 5 6 4 6 6 5 3 3 4 3 1 5 6 3 12 4 4 6 4 7 8 8 6 5 4 12 20 21 17 18 21
6 6 5 5 4 4 3 4 5 3 3 5 3 4 3 6 3 5 2 10 4 7 6 7 6 6 5 10 11 16 18 22 22
6 6 6 5 3 5 3 4 3 2 2 3 3 1 3 4 7 3 8 3 9 6 5 7 5 6 5 11 13 16 21 24 23
6 6 6 5 4 3 4 4 4 2 1 1 2 2 3 4 3 11 6 8 7 7 7 5 7 6 6 5 7 20 23 20 24
Wind_Direction
215 205 179 172 170 165 151 33 300 311 304 303 298 301 304 334 307 302 298 302 292 291 282 269 258 266 267 272 267 274 267 265 252
220 208 180 158 172 173 233 285 308 310 303 297 298 281 274 267 253 270 279 278 283 283 277 277 268 260 260 269 264 269 265 262 258
16 128 136 168 191 230 267 286 287 289 288 289 286 292 293 287 253 251 256 269 281 283 278 275 278 263 260 265 266 268 266 268 267
33 148 164 205 248 256 275 287 296 297 296 294 288 285 280 274 257 258 247 262 277 279 273 270 270 272 262 261 259 262 266 269 262
21 100 222 247 263 278 289 296 299 296 295 295 292 290 283 265 264 257 255 274 283 285 281 280 272 268 271 266 260 254 256 258 268
223 218 235 259 266 282 292 296 289 284 291 305 311 310 288 277 270 267 271 279 287 292 289 279 276 278 272 266 261 265 267 265 257
215 229 257 270 295 306 313 314 329 341 332 327 332 334 326 315 295 289 305 312 317 317 309 298 294 291 285 280 272 271 264 265 261
87 351 336 332 311 318 329 333 0 20 23 7 8 358 4 344 332 321 326 328 325 329 324 326 324 309 292 286 283 277 276 270 272
233 47 43 48 10 29 31 39 28 27 16 17 12 14 5 360 342 342 346 0 10 4 5 3 4 359 337 299 294 303 296 289 282
91 77 67 52 40 47 37 29 25 18 8 11 12 7 2 348 351 353 357 24 30 20 20 28 22 15 14 17 15 24 22 13 360
86 71 70 56 50 42 44 38 33 18 0 355 356 4 352 1 10 4 360 24 24 23 30 20 18 14 11 18 9 5 4 1 358
86 78 66 49 43 51 39 33 32 20 357 350 344 2 357 13 15 13 7 8 17 22 19 16 15 11 11 3 3 1 358 349 347
88 84 65 47 48 44 41 25 22 10 359 334 329 353 354 22 25 18 9 11 15 12 15 14 12 11 3 1 359 355 348 350 349
85 75 67 51 49 39 26 28 39 14 350 327 316 346 344 28 13 20 7 18 6 0 4 7 7 4 359 359 353 351 349 345 338
79 69 58 50 51 32 20 28 8 34 337 314 313 321 282 20 29 15 4 8 10 350 349 351 344 354 358 355 347 342 338 333 342
73 69 60 52 60 50 30 3 12 337 350 337 326 325 289 267 5 358 357 12 359 347 355 347 334 331 354 349 342 339 332 330 333
78 79 68 56 55 40 35 35 352 347 8 340 301 349 329 330 327 347 355 355 337 347 341 328 323 329 326 333 335 334 326 330 322
81 76 74 65 64 53 40 34 43 357 330 25 70 349 305 320 315 315 347 336 326 323 306 300 308 307 311 325 320 320 323 321 315
78 79 77 71 60 51 23 37 37 69 22 326 36 219 240 312 319 295 313 301 314 293 291 293 295 292 295 298 309 319 321 318 320
74 79 75 68 57 50 45 26 22 29 34 14 321 290 261 246 272 302 309 305 308 300 288 279 296 281 292 284 290 317 316 312 309